Location: McFarlands Corners
(41.4117°N, 81.3382°W)
Time: 16:03:53
(UTC+00:00)

SR - Pass Details

Date: 19 February 2026
Orbit: 572 x 849 km, 66.7° (Epoch: 12 March)

Event Time Altitude Azimuth Distance (km) Brightness Sun altitude
Rises 18:50:08 0° 325° (NW) 3,112 ? 35.0°
Reaches altitude 10° 18:52:27 10° 321° (NW) 2,232 ? 34.9°
Maximum altitude 18:57:26 54° 245° (WSW) 933 ? 34.5°
Drops below altitude 10° 19:02:46 10° 169° (S) 2,382 ? 34.1°
Sets 19:05:18 0° 165° (SSE) 3,340 ? 33.9°
